Charleston, WV

4:40 PM EST on December 06, 2019 (GMT -0500)
Yeager Airport

Weather History for KCRW - July, 2019

Change the Weather History Date:

Wednesday, July 17, 2019

  Actual Average Record
Temperature  
Mean Temperature 80 °F 76 °F  
Max Temperature 89 °F 85 °F 103 °F (1931)
Min Temperature 71 °F 66 °F 52 °F (1954)
Degree Days  
Heating Degree Days 0 0  
Month to date heating degree days 0 0  
Since 1 June heating degree days 7 13  
Since 1 July heating degree days 0 0  
Cooling Degree Days 15 11  
Month to date cooling degree days 255 180  
Year to date cooling degree days 653 510  
Since 1 June cooling degree days 457 400  
Growing Degree Days 30 (Base 50)    
Moisture  
Dew Point 70 °F    
Average Humidity 73    
Maximum Humidity 93    
Minimum Humidity 53    
Precipitation  
Precipitation 0.15 in 0.18 in 1.57 in (1983)
Month to date precipitation 0.91 2.67  
Year to date precipitation 27.25 25.10  
Sea Level Pressure  
Sea Level Pressure 29.96 in    
Wind  
Wind Speed 6 mph (SW)    
Max Wind Speed 21 mph    
Max Gust Speed 28 mph    
Visibility 10 miles    
Events Rain    
T = Trace of Precipitation, MM = Missing Value Source: NWS Daily Summary

Daily Weather History Graph

Daily Weather History Graph

Search for Another Location

Airport or City:

Astronomy

Jul. 17, 2019 Rise Set
Actual Time 6:16 AM EDT 8:48 PM EDT
Civil Twilight 5:45 AM EDT 9:19 PM EDT
Nautical Twilight 5:07 AM EDT 9:57 PM EDT
Astronomical Twilight 4:24 AM EDT 10:39 PM EDT
Moon 9:36 PM EDT (7/17) 6:47 AM EDT (7/17)
Length of Visible Light 15h 33m
Length of Day
14h 32m
Waxing Gibbous, 99% of the Moon is Illuminated
Jul 17
Waxing Gibbous
Jul 24
Last Quarter
Jul 31
New
Aug 7
First Quarter
Aug 15
Full

Hourly Weather History & Observations

Time (EDT) Temp. Heat Index Dew Point Humidity Pressure Visibility Wind Dir Wind Speed Gust Speed Precip Events Conditions
12:54 AM 73.9 °F - 70.0 °F 87% 30.02 in 9.0 mi Calm Calm - N/A   Partly Cloudy
1:54 AM 75.0 °F - 68.0 °F 79% 30.00 in 10.0 mi Calm Calm - N/A   Partly Cloudy
2:54 AM 73.9 °F - 68.0 °F 82% 29.98 in 10.0 mi Calm Calm - N/A   Partly Cloudy
3:54 AM 73.9 °F - 66.9 °F 79% 29.97 in 10.0 mi Calm Calm - N/A   Clear
4:54 AM 72.0 °F - 68.0 °F 87% 29.98 in 10.0 mi Calm Calm - N/A   Partly Cloudy
5:54 AM 71.1 °F - 68.0 °F 90% 29.98 in 10.0 mi Calm Calm - N/A   Mostly Cloudy
6:54 AM 72.0 °F - 69.1 °F 91% 29.98 in 10.0 mi Calm Calm - N/A   Mostly Cloudy
7:54 AM 75.9 °F - 69.1 °F 79% 29.97 in 10.0 mi Calm Calm - N/A   Mostly Cloudy
8:54 AM 75.9 °F - 69.1 °F 79% 30.00 in 9.0 mi West 5.8 mph - 0.01 in Rain Light Rain
9:54 AM 75.9 °F - 70.0 °F 82% 30.00 in 10.0 mi Calm Calm - 0.00 in   Mostly Cloudy
10:54 AM 80.1 °F 82.9 °F 69.1 °F 69% 29.99 in 10.0 mi WSW 8.1 mph - N/A   Mostly Cloudy
11:54 AM 82.0 °F 85.9 °F 70.0 °F 67% 29.99 in 10.0 mi WSW 5.8 mph - N/A   Mostly Cloudy
12:54 PM 84.0 °F 87.0 °F 68.0 °F 58% 29.98 in 10.0 mi WSW 17.3 mph 26.5 mph N/A   Overcast
1:54 PM 88.0 °F 91.4 °F 68.0 °F 51% 29.96 in 10.0 mi WSW 12.7 mph 23.0 mph N/A   Mostly Cloudy
2:54 PM 86.0 °F 89.4 °F 68.0 °F 55% 29.94 in 10.0 mi SW 16.1 mph 23.0 mph N/A   Overcast
3:54 PM 87.1 °F 91.3 °F 69.1 °F 55% 29.91 in 10.0 mi West 8.1 mph 18.4 mph 0.00 in   Mostly Cloudy
4:32 PM 80.1 °F 83.8 °F 72.0 °F 76% 29.95 in 10.0 mi SW 9.2 mph - 0.01 in Rain Light Rain
4:54 PM 79.0 °F - 71.1 °F 77% 29.93 in 10.0 mi SW 15.0 mph - 0.01 in   Mostly Cloudy
5:54 PM 78.1 °F - 73.9 °F 87% 29.93 in 9.0 mi West 3.5 mph - 0.13 in   Mostly Cloudy
6:54 PM 80.1 °F 84.2 °F 73.0 °F 79% 29.91 in 10.0 mi SSW 11.5 mph - N/A   Scattered Clouds
7:54 PM 79.0 °F - 72.0 °F 79% 29.92 in 10.0 mi SW 10.4 mph - N/A   Scattered Clouds
8:54 PM 78.1 °F - 73.0 °F 84% 29.93 in 10.0 mi SSW 6.9 mph - N/A   Partly Cloudy
9:54 PM 77.0 °F - 73.0 °F 88% 29.93 in 10.0 mi SSW 5.8 mph - N/A   Mostly Cloudy
10:54 PM 77.0 °F - 72.0 °F 84% 29.95 in 10.0 mi SW 6.9 mph - N/A   Scattered Clouds
11:54 PM 75.9 °F - 72.0 °F 87% 29.94 in 9.0 mi SW 5.8 mph - N/A   Scattered Clouds